Weather in Grudziadz

Poland     53°29′27″N   18°47′04″E
temp.,
°C
wind,
m/s
gust,
m/s
humid.,
%
clouds,
%
prec.,
mm/h
press.,
hPa
HPBL,
m
17 april, sat
sat1723:00+3n369682 0.0 1019157
02:00+5nnw3695100 0.0 1019150
05:00+6n3896100 0.0 1018228
08:00+8nne489029 0.0 1019332
11:00+13ene466847 0.1 10191132
14:00+14e4557100 1.4 10191693
17:00+11ne2476100 0.6 1019100
20:00+9ne378911 0.9 1020127
18 april, sun
sun1823:00+7ne369632 0.1 1020143
02:00+6nne3596100 0.1 102193
05:00+6ne3696100 0.0 1020131
08:00+8ne3688100 0.0 1021266
11:00+13ene4668100 0.1 10211147
14:00+12ene2578100 0.2 1021466
17:00+12ne3580100 1.6 1020122
20:00+10nne379312 3.9 1020187
19 april, mon
mon1923:00+8ne239497 0.4 102155
02:00+9ne2291100 0.4 102049
05:00+9ne2390100 0.0 102064
08:00+11e498071 0.2 1020348
11:00+12ene497064 0.1 1020757
14:00+15e674482 0.2 10192328
17:00+13e4759100 0.0 10191419
20:00+10ne3776100 0.1 1018281
20 april, tue
tue2023:00+7ene37855 0.1 1019185
02:00+7ne3782100 0.1 1018272
05:00+7ne2582100 0.0 1017194
08:00+7ne2680100 0.0 1017287
11:00+10ne2464100 0.1 1016533
14:00+12nne445498 0.3 10141476
17:00+11nne456199 0.3 10131117
20:00+8n37816 0.3 1013224
21 april, wed
wed2123:00+5n25905 0.0 101395
02:00+4nnw22905 0.0 101215
05:00+3nw22905 0.0 101114
08:00+7wnw237156 0.0 1011258
11:00+12w345074 0.0 10101740
14:00+13w354597 0.1 10081987
17:00+12sw245694 0.1 1008534
20:00+9ssw22746 0.2 100830